Location: *
(49.9853°N, 3.5569°E)
Time: 17:41:17
(UTC+00:00)

Resurs 01 Rocket - Pass Details

Date: 22 September 2019
Orbit: 635 x 644 km, 98.0° (Epoch: 22 October)

Event Time Altitude Azimuth Distance (km) Brightness Sun altitude
Exits shadow 19:02:49 20° 101° (E) 1,480 2.9 -13.2°
Maximum altitude 19:04:40 27° 64° (ENE) 1,242 2.7 -13.5°
Drops below altitude 10° 19:08:25 10° 7° (N) 2,052 4.4 -14.1°
Sets 19:10:53 0° 355° (N) 2,968 5.4 -14.5°
